Time,TemperatureF,DewpointF,PressureIn,WindDirection,WindDirectionDegrees,WindSpeedMPH,WindSpeedGustMPH,Humidity,HourlyPrecipIn,Conditions,Clouds,dailyrainin,SoftwareType,DateUTC
2013-02-03 00:00:00,25.7,10.4,30.00,NNW,338,0.0,2.2,52,0.00,,,0.00,WUHU216HW,2013-02-03 05:00:00,
2013-02-03 00:03:00,25.6,10.3,30.00,North,0,0.9,2.2,52,0.00,,,0.00,WUHU216HW,2013-02-03 05:03:00,
2013-02-03 00:08:00,25.6,10.3,30.00,ENE,68,1.8,5.6,52,0.00,,,0.00,WUHU216HW,2013-02-03 05:08:00,
2013-02-03 00:13:00,25.6,10.3,30.00,NNW,338,4.0,5.6,52,0.00,,,0.00,WUHU216HW,2013-02-03 05:13:00,
2013-02-03 00:18:00,25.6,10.3,30.00,NNW,338,1.6,4.0,52,0.00,,,0.00,WUHU216HW,2013-02-03 05:18:00,
2013-02-03 00:23:00,25.6,10.7,30.00,North,0,0.2,2.5,53,0.00,,,0.00,WUHU216HW,2013-02-03 05:23:00,
2013-02-03 00:28:00,25.4,10.5,30.00,NNW,338,0.2,3.4,53,0.00,,,0.00,WUHU216HW,2013-02-03 05:28:00,
2013-02-03 00:33:00,25.4,10.5,30.00,NNW,338,0.2,3.4,53,0.00,,,0.00,WUHU216HW,2013-02-03 05:33:00,
2013-02-03 00:38:00,25.4,10.5,30.00,WNW,293,1.8,1.8,53,0.00,,,0.00,WUHU216HW,2013-02-03 05:38:00,
2013-02-03 00:43:00,25.2,10.4,30.00,North,0,0.0,2.5,53,0.00,,,0.00,WUHU216HW,2013-02-03 05:43:00,
2013-02-03 00:48:00,25.2,10.4,30.00,NE,45,0.4,2.5,53,0.00,,,0.00,WUHU216HW,2013-02-03 05:48:00,
2013-02-03 00:53:00,24.8,10.1,30.00,NW,315,1.3,3.6,53,0.00,,,0.00,WUHU216HW,2013-02-03 05:53:00,
2013-02-03 00:58:00,24.8,10.1,30.00,NNE,23,1.6,3.6,53,0.00,,,0.00,WUHU216HW,2013-02-03 05:58:00,
2013-02-03 01:03:00,24.8,10.1,30.00,North,0,0.9,1.6,53,0.00,,,0.00,WUHU216HW,2013-02-03 06:03:00,
2013-02-03 01:08:00,24.5,9.7,30.00,NNW,338,0.0,1.1,53,0.00,,,0.00,WUHU216HW,2013-02-03 06:08:00,
2013-02-03 01:13:00,24.3,9.2,29.99,North,0,0.0,1.1,52,0.00,,,0.00,WUHU216HW,2013-02-03 06:13:00,
2013-02-03 01:18:00,24.1,8.6,29.99,NNE,23,0.2,1.1,51,0.00,,,0.00,WUHU216HW,2013-02-03 06:18:00,
2013-02-03 01:23:00,23.6,6.8,29.99,NNE,23,0.9,1.1,48,0.00,,,0.00,WUHU216HW,2013-02-03 06:23:00,
2013-02-03 01:28:00,23.4,5.6,29.99,North,0,0.2,1.3,46,0.00,,,0.00,WUHU216HW,2013-02-03 06:28:00,
2013-02-03 01:33:00,23.2,5.4,29.99,North,0,0.0,1.3,46,0.00,,,0.00,WUHU216HW,2013-02-03 06:33:00,
2013-02-03 01:38:00,23.0,5.2,29.99,North,0,0.0,0.2,46,0.00,,,0.00,WUHU216HW,2013-02-03 06:38:00,
2013-02-03 01:43:00,22.9,4.2,29.99,NW,315,0.2,0.4,44,0.00,,,0.00,WUHU216HW,2013-02-03 06:43:00,
2013-02-03 01:48:00,22.7,4.0,29.99,North,0,0.2,0.4,44,0.00,,,0.00,WUHU216HW,2013-02-03 06:48:00,
2013-02-03 01:53:00,22.7,4.0,29.99,West,270,0.0,0.4,44,0.00,,,0.00,WUHU216HW,2013-02-03 06:53:00,
2013-02-03 01:58:00,22.7,4.0,29.99,NW,315,0.0,0.4,44,0.00,,,0.00,WUHU216HW,2013-02-03 06:58:00,
2013-02-03 02:03:00,22.5,3.8,29.99,West,270,0.0,0.2,44,0.00,,,0.00,WUHU216HW,2013-02-03 07:03:00,
2013-02-03 02:08:00,22.3,3.2,29.99,West,270,0.0,0.2,43,0.00,,,0.00,WUHU216HW,2013-02-03 07:08:00,
2013-02-03 02:13:00,22.3,2.6,29.99,NNW,338,0.0,0.0,42,0.00,,,0.00,WUHU216HW,2013-02-03 07:13:00,
2013-02-03 02:18:00,22.1,2.0,29.98,NW,315,0.0,0.0,41,0.00,,,0.00,WUHU216HW,2013-02-03 07:18:00,
2013-02-03 02:23:00,22.1,1.5,29.98,NNW,338,0.0,0.0,40,0.00,,,0.00,WUHU216HW,2013-02-03 07:23:00,
2013-02-03 02:28:00,22.1,0.9,29.98,NNW,338,0.0,0.0,39,0.00,,,0.00,WUHU216HW,2013-02-03 07:28:00,
2013-02-03 02:33:00,22.0,0.2,29.98,NNW,338,0.0,0.0,38,0.00,,,0.00,WUHU216HW,2013-02-03 07:33:00,
2013-02-03 02:38:00,22.1,-0.3,29.98,NNW,338,0.0,0.0,37,0.00,,,0.00,WUHU216HW,2013-02-03 07:38:00,
2013-02-03 02:43:00,22.0,-0.4,29.98,NW,315,0.0,0.0,37,0.00,,,0.00,WUHU216HW,2013-02-03 07:43:00,
2013-02-03 02:48:00,22.0,-1.1,29.97,North,0,0.0,0.0,36,0.00,,,0.00,WUHU216HW,2013-02-03 07:48:00,
2013-02-03 02:53:00,22.0,-1.7,29.97,North,0,0.0,0.0,35,0.00,,,0.00,WUHU216HW,2013-02-03 07:53:00,
2013-02-03 02:58:00,22.0,-2.3,29.97,North,0,0.0,0.0,34,0.00,,,0.00,WUHU216HW,2013-02-03 07:58:00,
2013-02-03 03:03:00,22.0,-3.5,29.97,North,0,0.0,0.0,32,0.00,,,0.00,WUHU216HW,2013-02-03 08:03:00,
2013-02-03 03:08:00,22.0,-2.9,29.96,North,0,0.0,0.0,33,0.00,,,0.00,WUHU216HW,2013-02-03 08:08:00,
2013-02-03 03:13:00,22.0,-3.5,29.96,North,0,0.0,0.0,32,0.00,,,0.00,WUHU216HW,2013-02-03 08:13:00,
2013-02-03 03:18:00,21.8,-3.7,29.96,North,0,0.0,0.0,32,0.00,,,0.00,WUHU216HW,2013-02-03 08:18:00,
2013-02-03 03:23:00,21.8,-4.3,29.95,North,0,0.0,0.0,31,0.00,,,0.00,WUHU216HW,2013-02-03 08:23:00,
2013-02-03 03:28:00,21.6,-4.5,29.96,North,0,0.0,0.0,31,0.00,,,0.00,WUHU216HW,2013-02-03 08:28:00,
2013-02-03 03:33:00,21.4,-5.2,29.95,North,0,0.0,0.0,30,0.00,,,0.00,WUHU216HW,2013-02-03 08:33:00,
2013-02-03 03:38:00,21.4,-6.0,29.95,North,0,0.0,0.0,29,0.00,,,0.00,WUHU216HW,2013-02-03 08:38:00,
2013-02-03 03:43:00,21.6,-7.6,29.95,North,0,0.0,0.0,27,0.00,,,0.00,WUHU216HW,2013-02-03 08:43:00,
2013-02-03 03:49:00,21.8,-9.9,29.95,North,0,0.0,0.0,24,0.00,,,0.00,WUHU216HW,2013-02-03 08:49:00,
2013-02-03 03:54:00,22.0,-12.2,29.95,NNE,23,0.0,0.0,21,0.00,,,0.00,WUHU216HW,2013-02-03 08:54:00,
2013-02-03 03:58:00,22.1,-16.9,29.95,NNE,23,0.0,0.0,17,0.00,,,0.00,WUHU216HW,2013-02-03 08:58:00,
2013-02-03 04:03:00,22.1,-19.5,29.94,NNE,23,0.0,0.0,15,0.00,,,0.00,WUHU216HW,2013-02-03 09:03:00,
2013-02-03 04:08:00,22.3,-23.5,29.94,NNE,23,0.0,0.0,12,0.00,,,0.00,WUHU216HW,2013-02-03 09:08:00,
2013-02-03 04:13:00,22.1,-23.6,29.94,NNE,23,0.0,0.0,12,0.00,,,0.00,WUHU216HW,2013-02-03 09:13:00,
2013-02-03 04:18:00,22.1,-23.6,29.94,NNE,23,0.0,0.0,12,0.00,,,0.00,WUHU216HW,2013-02-03 09:18:00,
2013-02-03 04:23:00,22.0,-21.0,29.94,NNW,338,0.0,0.0,14,0.00,,,0.00,WUHU216HW,2013-02-03 09:23:00,
2013-02-03 04:28:00,22.0,-21.0,29.94,North,0,0.0,0.0,14,0.00,,,0.00,WUHU216HW,2013-02-03 09:28:00,
2013-02-03 04:33:00,21.6,-21.3,29.95,North,0,0.0,0.0,14,0.00,,,0.00,WUHU216HW,2013-02-03 09:33:00,
2013-02-03 04:38:00,21.4,-21.5,29.94,North,0,0.0,0.0,14,0.00,,,0.00,WUHU216HW,2013-02-03 09:38:00,
2013-02-03 04:43:00,21.2,-20.3,29.95,North,0,0.0,0.0,15,0.00,,,0.00,WUHU216HW,2013-02-03 09:43:00,
2013-02-03 04:48:00,20.9,-20.6,29.95,North,0,0.0,0.0,15,0.00,,,0.00,WUHU216HW,2013-02-03 09:48:00,
2013-02-03 04:53:00,20.7,-22.0,29.94,North,0,0.0,0.0,14,0.00,,,0.00,WUHU216HW,2013-02-03 09:53:00,
2013-02-03 04:58:00,20.5,-22.2,29.94,North,0,0.0,0.0,14,0.00,,,0.00,WUHU216HW,2013-02-03 09:58:00,
2013-02-03 05:03:00,20.2,-22.5,29.94,North,0,0.0,0.0,14,0.00,,,0.00,WUHU216HW,2013-02-03 10:03:00,
2013-02-03 05:08:00,20.0,-21.3,29.95,North,0,0.0,0.0,15,0.00,,,0.00,WUHU216HW,2013-02-03 10:08:00,
2013-02-03 05:13:00,19.6,-21.5,29.94,North,0,0.0,0.0,15,0.00,,,0.00,WUHU216HW,2013-02-03 10:13:00,
2013-02-03 05:18:00,19.6,-21.5,29.94,North,0,0.0,0.0,15,0.00,,,0.00,WUHU216HW,2013-02-03 10:18:00,
2013-02-03 05:23:00,19.4,-23.0,29.94,North,0,0.0,0.0,14,0.00,,,0.00,WUHU216HW,2013-02-03 10:23:00,
2013-02-03 05:28:00,19.3,-23.1,29.94,North,0,0.0,0.0,14,0.00,,,0.00,WUHU216HW,2013-02-03 10:28:00,
2013-02-03 05:33:00,19.3,-23.1,29.95,North,0,0.0,0.0,14,0.00,,,0.00,WUHU216HW,2013-02-03 10:33:00,
2013-02-03 05:38:00,19.3,-25.7,29.95,North,0,0.0,0.0,12,0.00,,,0.00,WUHU216HW,2013-02-03 10:38:00,
2013-02-03 05:43:00,19.1,-25.9,29.95,North,0,0.0,0.0,12,0.00,,,0.00,WUHU216HW,2013-02-03 10:43:00,
2013-02-03 05:48:00,19.1,-25.9,29.94,North,0,0.0,0.0,12,0.00,,,0.00,WUHU216HW,2013-02-03 10:48:00,
2013-02-03 05:53:00,18.9,-26.1,29.95,North,0,0.0,0.0,12,0.00,,,0.00,WUHU216HW,2013-02-03 10:53:00,
2013-02-03 05:58:00,18.7,-26.2,29.94,North,0,0.0,0.0,12,0.00,,,0.00,WUHU216HW,2013-02-03 10:58:00,
2013-02-03 06:03:00,18.4,-23.9,29.94,North,0,0.0,0.0,14,0.00,,,0.00,WUHU216HW,2013-02-03 11:03:00,
2013-02-03 06:08:00,18.2,-24.0,29.94,North,0,0.0,0.0,14,0.00,,,0.00,WUHU216HW,2013-02-03 11:08:00,
2013-02-03 06:13:00,18.0,-24.2,29.94,North,0,0.0,0.0,14,0.00,,,0.00,WUHU216HW,2013-02-03 11:13:00,
2013-02-03 06:18:00,17.8,-24.4,29.94,North,0,0.0,0.0,14,0.00,,,0.00,WUHU216HW,2013-02-03 11:18:00,
2013-02-03 06:23:00,17.6,-24.5,29.94,North,0,0.0,0.0,14,0.00,,,0.00,WUHU216HW,2013-02-03 11:23:00,
2013-02-03 06:28:00,17.6,-28.4,29.94,North,0,0.0,0.0,11,0.00,,,0.00,WUHU216HW,2013-02-03 11:28:00,
2013-02-03 06:33:00,17.8,-29.5,29.93,North,0,0.0,0.0,10,0.00,,,0.00,WUHU216HW,2013-02-03 11:33:00,
2013-02-03 06:38:00,17.8,-29.5,29.93,North,0,0.0,0.0,9,0.00,,,0.00,WUHU216HW,2013-02-03 11:38:00,
2013-02-03 06:43:00,17.8,-29.5,29.93,North,0,0.0,0.0,5,0.00,,,0.00,WUHU216HW,2013-02-03 11:43:00,
2013-02-03 06:48:00,17.8,-29.5,29.93,North,0,0.0,0.0,6,0.00,,,0.00,WUHU216HW,2013-02-03 11:48:00,
2013-02-03 06:53:00,17.6,-29.7,29.93,North,0,0.0,0.0,6,0.00,,,0.00,WUHU216HW,2013-02-03 11:53:00,
2013-02-03 06:58:00,17.5,-29.9,29.93,North,0,0.0,0.0,6,0.00,,,0.00,WUHU216HW,2013-02-03 11:58:00,
2013-02-03 07:03:00,17.3,-30.0,29.93,North,0,0.0,0.0,5,0.00,,,0.00,WUHU216HW,2013-02-03 12:03:00,
2013-02-03 07:08:00,17.3,-30.0,29.93,North,0,0.0,0.0,5,0.00,,,0.00,WUHU216HW,2013-02-03 12:08:00,
2013-02-03 07:13:00,17.1,-30.1,29.93,North,0,0.0,0.0,6,0.00,,,0.00,WUHU216HW,2013-02-03 12:13:00,
2013-02-03 07:18:00,16.9,-30.2,29.93,North,0,0.0,0.0,4,0.00,,,0.00,WUHU216HW,2013-02-03 12:18:00,
2013-02-03 07:23:00,16.9,-30.2,29.93,North,0,0.0,0.0,4,0.00,,,0.00,WUHU216HW,2013-02-03 12:23:00,
2013-02-03 07:28:00,16.9,-30.2,29.93,North,0,0.0,0.0,4,0.00,,,0.00,WUHU216HW,2013-02-03 12:28:00,
2013-02-03 07:33:00,16.9,-30.2,29.92,North,0,0.0,0.0,2,0.00,,,0.00,WUHU216HW,2013-02-03 12:33:00,
2013-02-03 07:38:00,17.1,-30.1,29.92,North,0,0.0,0.0,2,0.00,,,0.00,WUHU216HW,2013-02-03 12:38:00,
2013-02-03 07:43:00,17.1,-30.1,29.93,North,0,0.0,0.0,2,0.00,,,0.00,WUHU216HW,2013-02-03 12:43:00,
2013-02-03 07:48:00,17.3,-30.0,29.93,North,0,0.0,0.0,1,0.00,,,0.00,WUHU216HW,2013-02-03 12:48:00,
2013-02-03 07:53:00,17.5,-29.9,29.93,North,0,0.0,0.0,1,0.00,,,0.00,WUHU216HW,2013-02-03 12:53:00,
2013-02-03 07:58:00,17.6,-29.7,29.93,North,0,0.0,0.0,1,0.00,,,0.00,WUHU216HW,2013-02-03 12:58:00,
2013-02-03 08:03:00,18.0,-29.4,29.93,North,0,0.0,0.0,1,0.00,,,0.00,WUHU216HW,2013-02-03 13:03:00,
2013-02-03 08:08:00,18.2,-29.2,29.93,North,0,0.0,0.0,1,0.00,,,0.00,WUHU216HW,2013-02-03 13:08:00,
2013-02-03 08:13:00,18.5,-29.0,29.93,North,0,0.0,0.2,1,0.00,,,0.00,WUHU216HW,2013-02-03 13:13:00,
2013-02-03 08:18:00,18.7,-28.8,29.93,North,0,0.0,0.4,1,0.00,,,0.00,WUHU216HW,2013-02-03 13:18:00,
2013-02-03 08:23:00,19.1,-28.5,29.93,NNW,338,0.0,0.4,1,0.00,,,0.00,WUHU216HW,2013-02-03 13:23:00,
2013-02-03 08:28:00,19.4,-28.3,29.93,North,0,1.1,1.1,1,0.00,,,0.00,WUHU216HW,2013-02-03 13:28:00,
2013-02-03 08:33:00,19.8,-28.0,29.93,NE,45,1.8,1.8,1,0.00,,,0.00,WUHU216HW,2013-02-03 13:33:00,
2013-02-03 08:38:00,20.3,-27.6,29.93,NNE,23,0.2,1.8,1,0.00,,,0.00,WUHU216HW,2013-02-03 13:38:00,
2013-02-03 08:43:00,20.9,-27.3,29.93,North,0,1.1,2.0,1,0.00,,,0.00,WUHU216HW,2013-02-03 13:43:00,
2013-02-03 08:48:00,21.2,-27.0,29.93,NNW,338,0.9,2.0,1,0.00,,,0.00,WUHU216HW,2013-02-03 13:48:00,
2013-02-03 08:53:00,21.8,-26.5,29.94,North,0,0.4,1.8,1,0.00,,,0.00,WUHU216HW,2013-02-03 13:53:00,
2013-02-03 08:58:00,22.3,-26.1,29.94,South,180,0.0,0.4,1,0.00,,,0.00,WUHU216HW,2013-02-03 13:58:00,
2013-02-03 09:04:00,22.5,-26.0,29.93,North,0,0.0,2.2,1,0.00,,,0.00,WUHU216HW,2013-02-03 14:04:00,
2013-02-03 09:09:00,22.7,-25.8,29.93,NNE,23,1.1,2.5,1,0.00,,,0.00,WUHU216HW,2013-02-03 14:09:00,
2013-02-03 09:14:00,23.4,-25.3,29.93,ENE,68,0.0,2.5,1,0.00,,,0.00,WUHU216HW,2013-02-03 14:14:00,
2013-02-03 09:19:00,23.6,-25.1,29.93,North,0,0.4,3.1,1,0.00,,,0.00,WUHU216HW,2013-02-03 14:19:00,
2013-02-03 09:24:00,23.9,-24.8,29.92,NNE,23,1.1,3.1,1,0.00,,,0.00,WUHU216HW,2013-02-03 14:24:00,
2013-02-03 09:29:00,24.1,-24.6,29.92,East,90,2.2,2.2,1,0.00,,,0.00,WUHU216HW,2013-02-03 14:29:00,
2013-02-03 09:34:00,24.5,-24.4,29.92,North,0,0.0,2.2,1,0.00,,,0.00,WUHU216HW,2013-02-03 14:34:00,
2013-02-03 09:39:00,24.8,-24.1,29.92,North,0,0.9,2.0,1,0.00,,,0.00,WUHU216HW,2013-02-03 14:39:00,
2013-02-03 09:44:00,24.8,-24.1,29.92,ENE,68,2.0,2.0,10,0.00,,,0.00,WUHU216HW,2013-02-03 14:44:00,
2013-02-03 09:49:00,24.3,-23.2,29.92,East,90,1.6,2.0,11,0.00,,,0.00,WUHU216HW,2013-02-03 14:49:00,
2013-02-03 09:54:00,24.1,-23.3,29.92,NE,45,0.2,2.5,11,0.00,,,0.00,WUHU216HW,2013-02-03 14:54:00,
2013-02-03 09:59:00,24.3,-23.2,29.91,NE,45,0.2,2.5,11,0.00,,,0.00,WUHU216HW,2013-02-03 14:59:00,
2013-02-03 10:04:00,24.1,-11.2,29.91,NNE,23,1.6,2.2,20,0.00,,,0.00,WUHU216HW,2013-02-03 15:04:00,
2013-02-03 10:09:00,24.1,-13.8,29.91,East,90,0.0,2.9,18,0.00,,,0.00,WUHU216HW,2013-02-03 15:09:00,
2013-02-03 10:14:00,24.1,-11.1,29.91,ENE,68,2.0,2.9,20,0.00,,,0.00,WUHU216HW,2013-02-03 15:14:00,
2013-02-03 10:19:00,23.9,-8.8,29.91,East,90,0.2,3.4,23,0.00,,,0.00,WUHU216HW,2013-02-03 15:19:00,
2013-02-03 10:24:00,23.8,-8.1,29.90,ENE,68,0.9,3.4,24,0.00,,,0.00,WUHU216HW,2013-02-03 15:24:00,
2013-02-03 10:29:00,24.1,-7.8,29.91,NNE,23,5.1,5.1,24,0.00,,,0.00,WUHU216HW,2013-02-03 15:29:00,
2013-02-03 10:34:00,23.9,-5.5,29.90,SSE,158,1.8,5.1,27,0.00,,,0.00,WUHU216HW,2013-02-03 15:34:00,
2013-02-03 10:39:00,24.1,-6.1,29.90,NE,45,1.8,5.6,26,0.00,,,0.00,WUHU216HW,2013-02-03 15:39:00,
2013-02-03 10:44:00,24.1,-7.8,29.90,North,0,0.4,5.6,24,0.00,,,0.00,WUHU216HW,2013-02-03 15:44:00,
2013-02-03 10:49:00,24.1,-7.0,29.90,ESE,113,1.3,2.9,25,0.00,,,0.00,WUHU216HW,2013-02-03 15:49:00,
2013-02-03 10:55:00,24.1,-7.8,29.89,ESE,113,0.9,2.5,24,0.00,,,0.00,WUHU216HW,2013-02-03 15:55:00,
2013-02-03 11:00:00,24.3,-8.5,29.89,NNE,23,0.2,2.5,23,0.00,,,0.00,WUHU216HW,2013-02-03 16:00:00,
2013-02-03 11:05:00,24.8,-8.1,29.88,ENE,68,5.4,6.7,23,0.00,,,0.00,WUHU216HW,2013-02-03 16:05:00,
2013-02-03 11:10:00,24.8,-5.6,29.88,NNE,23,0.9,6.7,26,0.00,,,0.00,WUHU216HW,2013-02-03 16:10:00,
2013-02-03 11:15:00,24.8,-3.9,29.87,SE,135,1.3,4.3,28,0.00,,,0.00,WUHU216HW,2013-02-03 16:15:00,
2013-02-03 11:20:00,24.8,-3.9,29.87,East,90,0.4,4.3,28,0.00,,,0.00,WUHU216HW,2013-02-03 16:20:00,
2013-02-03 11:25:00,25.2,-3.6,29.87,SSE,158,0.0,4.7,28,0.00,,,0.00,WUHU216HW,2013-02-03 16:25:00,
2013-02-03 11:30:00,25.4,-4.2,29.87,SE,135,0.2,4.7,27,0.00,,,0.00,WUHU216HW,2013-02-03 16:30:00,
2013-02-03 11:35:00,25.2,-1.3,29.86,NE,45,0.0,5.4,31,0.00,,,0.00,WUHU216HW,2013-02-03 16:35:00,
2013-02-03 11:40:00,25.6,-1.6,29.86,NE,45,5.8,5.8,30,0.00,,,0.00,WUHU216HW,2013-02-03 16:40:00,
2013-02-03 11:45:00,25.6,-1.0,29.85,SE,135,2.2,6.3,31,0.00,,,0.00,WUHU216HW,2013-02-03 16:45:00,
2013-02-03 11:50:00,25.6,-0.4,29.85,ENE,68,4.7,5.6,32,0.00,,,0.00,WUHU216HW,2013-02-03 16:50:00,
2013-02-03 11:55:00,25.6,1.5,29.85,ENE,68,1.1,4.9,35,0.00,,,0.00,WUHU216HW,2013-02-03 16:55:00,
2013-02-03 12:00:00,25.6,0.9,29.84,ENE,68,2.9,4.9,34,0.00,,,0.00,WUHU216HW,2013-02-03 17:00:00,
2013-02-03 12:05:00,26.1,0.7,29.84,SE,135,5.8,5.8,33,0.00,,,0.00,WUHU216HW,2013-02-03 17:05:00,
2013-02-03 12:10:00,26.5,0.4,29.83,ENE,68,2.2,5.8,32,0.00,,,0.00,WUHU216HW,2013-02-03 17:10:00,
2013-02-03 12:15:00,26.6,1.8,29.83,NE,45,0.4,2.2,34,0.00,,,0.00,WUHU216HW,2013-02-03 17:15:00,
2013-02-03 12:20:00,26.6,3.1,29.83,North,0,2.0,3.4,36,0.00,,,0.00,WUHU216HW,2013-02-03 17:20:00,
2013-02-03 12:25:00,26.8,3.3,29.82,South,180,0.2,3.4,36,0.00,,,0.00,WUHU216HW,2013-02-03 17:25:00,
2013-02-03 12:30:00,26.8,4.5,29.82,North,0,1.1,6.5,38,0.00,,,0.00,WUHU216HW,2013-02-03 17:30:00,
2013-02-03 12:35:00,27.0,4.1,29.81,NE,45,2.7,6.5,37,0.00,,,0.00,WUHU216HW,2013-02-03 17:35:00,
2013-02-03 12:40:00,27.0,4.7,29.81,East,90,2.2,5.6,38,0.00,,,0.00,WUHU216HW,2013-02-03 17:40:00,
2013-02-03 12:45:00,27.0,4.7,29.81,North,0,2.9,4.0,38,0.00,,,0.00,WUHU216HW,2013-02-03 17:45:00,
2013-02-03 12:50:00,27.0,4.7,29.80,NE,45,2.0,5.4,38,0.00,,,0.00,WUHU216HW,2013-02-03 17:50:00,
2013-02-03 12:55:00,27.4,5.6,29.80,NE,45,0.2,5.4,39,0.00,,,0.00,WUHU216HW,2013-02-03 17:55:00,
2013-02-03 13:00:00,27.5,5.8,29.80,ESE,113,3.4,4.7,39,0.00,,,0.00,WUHU216HW,2013-02-03 18:00:00,
2013-02-03 13:05:00,27.4,7.8,29.79,SE,135,4.9,4.9,43,0.00,,,0.00,WUHU216HW,2013-02-03 18:05:00,
2013-02-03 13:10:00,27.0,7.4,29.79,SE,135,0.9,4.9,43,0.00,,,0.00,WUHU216HW,2013-02-03 18:10:00,
2013-02-03 13:15:00,27.2,7.0,29.79,East,90,4.7,4.7,42,0.00,,,0.00,WUHU216HW,2013-02-03 18:15:00,
2013-02-03 13:20:00,27.2,7.6,29.79,SE,135,0.7,6.9,43,0.00,,,0.00,WUHU216HW,2013-02-03 18:20:00,
2013-02-03 13:25:00,27.2,7.6,29.79,SE,135,0.7,6.9,43,0.00,,,0.00,WUHU216HW,2013-02-03 18:25:00,
2013-02-03 13:30:00,27.0,6.8,29.79,North,0,1.1,2.9,42,0.00,,,0.00,WUHU216HW,2013-02-03 18:30:00,
2013-02-03 13:35:00,27.4,6.8,29.78,North,0,1.8,1.8,41,0.00,,,0.00,WUHU216HW,2013-02-03 18:35:00,
2013-02-03 13:40:00,27.7,7.6,29.78,NNE,23,0.2,4.9,42,0.00,,,0.00,WUHU216HW,2013-02-03 18:40:00,
2013-02-03 13:45:00,27.7,7.6,29.78,SSE,158,0.4,4.9,42,0.00,,,0.00,WUHU216HW,2013-02-03 18:45:00,
2013-02-03 13:50:00,27.7,7.6,29.78,ENE,68,1.3,2.9,42,0.00,,,0.00,WUHU216HW,2013-02-03 18:50:00,
2013-02-03 13:55:00,27.7,7.6,29.77,NNE,23,0.0,2.9,42,0.00,,,0.00,WUHU216HW,2013-02-03 18:55:00,
2013-02-03 14:00:00,27.7,8.6,29.78,ESE,113,1.8,4.0,44,0.00,,,0.00,WUHU216HW,2013-02-03 19:00:00,
2013-02-03 14:05:00,27.4,8.2,29.77,NE,45,0.0,4.0,44,0.00,,,0.00,WUHU216HW,2013-02-03 19:05:00,
2013-02-03 14:10:00,27.4,7.8,29.77,NE,45,2.2,3.4,43,0.00,,,0.00,WUHU216HW,2013-02-03 19:10:00,
2013-02-03 14:15:00,27.2,7.6,29.77,ENE,68,2.2,3.6,43,0.00,,,0.00,WUHU216HW,2013-02-03 19:15:00,
2013-02-03 14:20:00,27.2,7.6,29.77,North,0,2.0,3.6,43,0.00,,,0.00,WUHU216HW,2013-02-03 19:20:00,
2013-02-03 14:25:00,27.2,7.0,29.77,North,0,2.5,6.0,42,0.00,,,0.00,WUHU216HW,2013-02-03 19:25:00,
2013-02-03 14:30:00,27.4,7.8,29.77,NNE,23,3.4,6.0,43,0.00,,,0.00,WUHU216HW,2013-02-03 19:30:00,
2013-02-03 14:35:00,27.4,7.8,29.77,NNE,23,1.6,3.6,43,0.00,,,0.00,WUHU216HW,2013-02-03 19:35:00,
2013-02-03 14:40:00,27.2,7.6,29.77,NNE,23,1.3,3.1,43,0.00,,,0.00,WUHU216HW,2013-02-03 19:40:00,
2013-02-03 14:45:00,27.0,6.8,29.77,NNE,23,0.7,1.3,42,0.00,,,0.00,WUHU216HW,2013-02-03 19:45:00,
2013-02-03 14:50:00,27.0,6.4,29.77,NE,45,0.0,2.9,41,0.00,,,0.00,WUHU216HW,2013-02-03 19:50:00,
2013-02-03 14:55:00,27.0,6.0,29.77,ENE,68,0.4,2.9,40,0.00,,,0.00,WUHU216HW,2013-02-03 19:55:00,
2013-02-03 15:00:00,27.0,6.0,29.77,SSE,158,2.2,2.2,40,0.00,,,0.00,WUHU216HW,2013-02-03 20:00:00,
2013-02-03 15:05:00,27.0,5.3,29.77,NNE,23,0.2,2.2,39,0.00,,,0.00,WUHU216HW,2013-02-03 20:05:00,
2013-02-03 15:11:00,26.6,4.3,29.77,SE,135,3.6,3.6,38,0.00,,,0.00,WUHU216HW,2013-02-03 20:11:00,
2013-02-03 15:16:00,26.3,2.8,29.76,ESE,113,0.2,3.6,36,0.00,,,0.00,WUHU216HW,2013-02-03 20:16:00,
2013-02-03 15:21:00,26.3,2.2,29.76,ESE,113,2.2,4.0,35,0.00,,,0.00,WUHU216HW,2013-02-03 20:21:00,
2013-02-03 15:26:00,26.3,0.9,29.76,ENE,68,0.7,4.5,33,0.00,,,0.00,WUHU216HW,2013-02-03 20:26:00,
2013-02-03 15:31:00,26.3,-1.0,29.76,NNE,23,1.1,4.5,30,0.00,,,0.00,WUHU216HW,2013-02-03 20:31:00,
2013-02-03 15:36:00,26.5,-4.1,29.76,ENE,68,1.8,2.9,26,0.00,,,0.00,WUHU216HW,2013-02-03 20:36:00,
2013-02-03 15:41:00,26.3,-4.3,29.76,NNE,23,0.7,3.4,26,0.00,,,0.00,WUHU216HW,2013-02-03 20:41:00,
2013-02-03 15:46:00,26.3,-6.8,29.76,SSE,158,4.3,4.9,23,0.00,,,0.00,WUHU216HW,2013-02-03 20:46:00,
2013-02-03 15:51:00,26.1,-6.1,29.76,SSW,203,1.3,4.9,24,0.00,,,0.00,WUHU216HW,2013-02-03 20:51:00,
2013-02-03 15:56:00,26.1,-7.0,29.76,South,180,0.4,4.7,23,0.00,,,0.00,WUHU216HW,2013-02-03 20:56:00,
2013-02-03 16:01:00,26.1,-8.6,29.76,NE,45,0.2,2.7,21,0.00,,,0.00,WUHU216HW,2013-02-03 21:01:00,
2013-02-03 16:06:00,26.1,-8.6,29.76,SE,135,0.9,1.8,21,0.00,,,0.00,WUHU216HW,2013-02-03 21:06:00,
2013-02-03 16:11:00,26.1,-12.2,29.76,ESE,113,1.1,1.8,18,0.00,,,0.00,WUHU216HW,2013-02-03 21:11:00,
2013-02-03 16:16:00,26.1,-16.3,29.76,ESE,113,1.8,1.8,15,0.00,,,0.00,WUHU216HW,2013-02-03 21:16:00,
2013-02-03 16:21:00,25.9,-15.1,29.76,ESE,113,0.0,3.4,16,0.00,,,0.00,WUHU216HW,2013-02-03 21:21:00,
2013-02-03 16:26:00,25.7,-16.5,29.76,East,90,1.3,3.4,15,0.00,,,0.00,WUHU216HW,2013-02-03 21:26:00,
2013-02-03 16:31:00,25.7,-18.0,29.75,SE,135,0.4,2.5,14,0.00,,,0.00,WUHU216HW,2013-02-03 21:31:00,
2013-02-03 16:36:00,25.7,-22.0,29.75,East,90,0.2,1.8,11,0.00,,,0.00,WUHU216HW,2013-02-03 21:36:00,
2013-02-03 16:41:00,25.7,-23.4,29.75,NNW,338,0.0,1.8,9,0.00,,,0.00,WUHU216HW,2013-02-03 21:41:00,
2013-02-03 16:46:00,25.6,-23.6,29.75,ENE,68,0.4,1.8,9,0.00,,,0.00,WUHU216HW,2013-02-03 21:46:00,
2013-02-03 16:51:00,25.6,-23.6,29.74,NE,45,0.0,2.7,7,0.00,,,0.00,WUHU216HW,2013-02-03 21:51:00,
2013-02-03 16:56:00,25.4,-23.7,29.74,ENE,68,3.4,5.4,10,0.00,,,0.00,WUHU216HW,2013-02-03 21:56:00,
2013-02-03 17:01:00,25.2,-23.8,29.74,NE,45,1.1,5.4,10,0.00,,,0.00,WUHU216HW,2013-02-03 22:01:00,
2013-02-03 17:06:00,25.2,-21.1,29.74,NNE,23,0.0,2.5,12,0.00,,,0.00,WUHU216HW,2013-02-03 22:06:00,
2013-02-03 17:11:00,25.0,-21.2,29.74,NNE,23,2.5,2.5,12,0.00,,,0.00,WUHU216HW,2013-02-03 22:11:00,
2013-02-03 17:16:00,25.0,-21.2,29.74,NNE,23,0.4,2.5,12,0.00,,,0.00,WUHU216HW,2013-02-03 22:16:00,
2013-02-03 17:20:00,24.8,-18.7,29.74,NNE,23,0.0,1.1,14,0.00,,,0.00,WUHU216HW,2013-02-03 22:20:00,
2013-02-03 17:26:00,24.8,-18.7,29.73,NNE,23,0.4,4.3,14,0.00,,,0.00,WUHU216HW,2013-02-03 22:26:00,
2013-02-03 17:31:00,24.8,-18.7,29.73,North,0,1.1,4.3,14,0.00,,,0.00,WUHU216HW,2013-02-03 22:31:00,
2013-02-03 17:36:00,24.8,-17.4,29.73,NNE,23,1.1,1.8,15,0.00,,,0.00,WUHU216HW,2013-02-03 22:36:00,
2013-02-03 17:41:00,24.8,-17.4,29.73,NNE,23,2.2,2.2,15,0.00,,,0.00,WUHU216HW,2013-02-03 22:41:00,
2013-02-03 17:46:00,24.8,-16.0,29.73,NE,45,1.1,2.2,16,0.00,,,0.00,WUHU216HW,2013-02-03 22:46:00,
2013-02-03 17:51:00,24.7,-16.2,29.73,NNE,23,0.7,1.6,16,0.00,,,0.00,WUHU216HW,2013-02-03 22:51:00,
2013-02-03 17:56:00,24.7,-16.2,29.73,NE,45,1.3,1.6,16,0.00,,,0.00,WUHU216HW,2013-02-03 22:56:00,
2013-02-03 18:01:00,24.7,-17.5,29.73,North,0,0.0,3.6,15,0.00,,,0.00,WUHU216HW,2013-02-03 23:01:00,
2013-02-03 18:06:00,24.5,-17.6,29.74,NE,45,0.0,3.6,15,0.00,,,0.00,WUHU216HW,2013-02-03 23:06:00,
2013-02-03 18:11:00,24.5,-14.9,29.74,NNE,23,0.0,1.1,17,0.00,,,0.00,WUHU216HW,2013-02-03 23:11:00,
2013-02-03 18:16:00,24.5,-14.9,29.73,NE,45,0.0,1.1,17,0.00,,,0.00,WUHU216HW,2013-02-03 23:16:00,
2013-02-03 18:21:00,24.5,-14.9,29.73,NNE,23,0.0,0.4,17,0.00,,,0.00,WUHU216HW,2013-02-03 23:21:00,
2013-02-03 18:26:00,24.5,-13.6,29.73,North,0,0.0,0.4,18,0.00,,,0.00,WUHU216HW,2013-02-03 23:26:00,
2013-02-03 18:31:00,24.3,-13.8,29.73,NE,45,0.9,0.9,18,0.00,,,0.00,WUHU216HW,2013-02-03 23:31:00,
2013-02-03 18:36:00,24.3,-13.8,29.73,North,0,0.0,0.9,18,0.00,,,0.00,WUHU216HW,2013-02-03 23:36:00,
2013-02-03 18:41:00,24.3,-12.4,29.73,NNE,23,0.0,0.7,19,0.00,,,0.00,WUHU216HW,2013-02-03 23:41:00,
2013-02-03 18:46:00,24.3,-11.1,29.73,North,0,0.0,0.7,20,0.00,,,0.00,WUHU216HW,2013-02-03 23:46:00,
2013-02-03 18:51:00,24.3,-11.1,29.74,NNE,23,0.0,0.4,20,0.00,,,0.00,WUHU216HW,2013-02-03 23:51:00,
2013-02-03 18:56:00,24.3,-11.1,29.74,NW,315,0.0,0.0,20,0.00,,,0.00,WUHU216HW,2013-02-03 23:56:00,
2013-02-03 19:01:00,24.3,-11.1,29.73,NNE,23,0.0,0.4,20,0.00,,,0.00,WUHU216HW,2013-02-04 00:01:00,
2013-02-03 19:06:00,24.3,-11.1,29.73,NE,45,0.0,0.4,20,0.00,,,0.00,WUHU216HW,2013-02-04 00:06:00,
2013-02-03 19:11:00,24.3,-11.1,29.73,NE,45,0.0,0.4,20,0.00,,,0.00,WUHU216HW,2013-02-04 00:11:00,
2013-02-03 19:16:00,24.3,-11.1,29.74,NNE,23,0.0,0.2,20,0.00,,,0.00,WUHU216HW,2013-02-04 00:16:00,
2013-02-03 19:21:00,24.3,-10.2,29.74,North,0,0.0,0.0,21,0.00,,,0.00,WUHU216HW,2013-02-04 00:21:00,
2013-02-03 19:26:00,24.3,-10.2,29.74,NNE,23,0.0,0.2,21,0.00,,,0.00,WUHU216HW,2013-02-04 00:26:00,
2013-02-03 19:31:00,24.3,-10.2,29.74,North,0,0.0,0.9,21,0.00,,,0.00,WUHU216HW,2013-02-04 00:31:00,
2013-02-03 19:37:00,24.3,-9.3,29.74,North,0,0.0,0.9,22,0.00,,,0.00,WUHU216HW,2013-02-04 00:37:00,
2013-02-03 19:42:00,24.3,-9.3,29.74,North,0,0.0,0.4,22,0.00,,,0.00,WUHU216HW,2013-02-04 00:42:00,
2013-02-03 19:46:00,24.1,-8.6,29.74,North,0,0.0,0.2,23,0.00,,,0.00,WUHU216HW,2013-02-04 00:46:00,
2013-02-03 19:52:00,24.3,-8.5,29.74,NNE,23,0.9,0.9,23,0.00,,,0.00,WUHU216HW,2013-02-04 00:52:00,
2013-02-03 19:56:00,24.3,-8.5,29.74,NNE,23,0.9,0.9,23,0.00,,,0.00,WUHU216HW,2013-02-04 00:56:00,
2013-02-03 20:01:00,24.1,-7.8,29.73,NNE,23,0.0,1.1,24,0.00,,,0.00,WUHU216HW,2013-02-04 01:01:00,
2013-02-03 20:07:00,24.3,-7.6,29.73,North,0,0.0,2.0,24,0.00,,,0.00,WUHU216HW,2013-02-04 01:07:00,
2013-02-03 20:12:00,24.1,-7.8,29.72,NNE,23,0.9,2.0,24,0.00,,,0.00,WUHU216HW,2013-02-04 01:12:00,
2013-02-03 20:17:00,24.1,-6.1,29.72,North,0,0.2,2.0,26,0.00,,,0.00,WUHU216HW,2013-02-04 01:17:00,
2013-02-03 20:22:00,24.1,-6.1,29.72,North,0,0.4,1.8,26,0.00,,,0.00,WUHU216HW,2013-02-04 01:22:00,
2013-02-03 20:27:00,24.1,-5.3,29.72,North,0,0.0,1.8,27,0.00,,,0.00,WUHU216HW,2013-02-04 01:27:00,
2013-02-03 20:32:00,24.1,-5.3,29.72,North,0,1.6,1.6,27,0.00,,,0.00,WUHU216HW,2013-02-04 01:32:00,
2013-02-03 20:37:00,24.1,-5.3,29.72,NNE,23,1.8,3.4,27,0.00,,,0.00,WUHU216HW,2013-02-04 01:37:00,
2013-02-03 20:42:00,24.1,-4.5,29.72,NE,45,1.8,3.4,28,0.00,,,0.00,WUHU216HW,2013-02-04 01:42:00,
2013-02-03 20:47:00,24.1,-4.5,29.72,NNE,23,0.2,1.8,28,0.00,,,0.00,WUHU216HW,2013-02-04 01:47:00,
2013-02-03 20:52:00,24.1,-5.3,29.72,NNE,23,0.7,1.1,27,0.00,,,0.00,WUHU216HW,2013-02-04 01:52:00,
2013-02-03 20:57:00,23.9,-4.7,29.72,North,0,0.0,0.7,28,0.00,,,0.00,WUHU216HW,2013-02-04 01:57:00,
2013-02-03 21:02:00,23.9,-4.7,29.72,North,0,0.0,0.4,28,0.00,,,0.00,WUHU216HW,2013-02-04 02:02:00,
2013-02-03 21:07:00,23.9,-5.5,29.72,NNW,338,0.0,0.7,27,0.00,,,0.00,WUHU216HW,2013-02-04 02:07:00,
2013-02-03 21:12:00,23.9,-5.5,29.71,North,0,0.4,1.1,27,0.00,,,0.00,WUHU216HW,2013-02-04 02:12:00,
2013-02-03 21:17:00,23.9,-6.3,29.72,NNE,23,0.0,1.1,26,0.00,,,0.00,WUHU216HW,2013-02-04 02:17:00,
2013-02-03 21:22:00,23.9,-5.5,29.72,North,0,0.9,0.9,27,0.00,,,0.00,WUHU216HW,2013-02-04 02:22:00,
2013-02-03 21:27:00,23.9,-5.5,29.72,NNE,23,0.0,0.9,27,0.00,,,0.00,WUHU216HW,2013-02-04 02:27:00,
2013-02-03 21:32:00,23.9,-5.5,29.72,North,0,0.4,0.4,27,0.00,,,0.00,WUHU216HW,2013-02-04 02:32:00,
2013-02-03 21:37:00,23.8,-5.7,29.72,North,0,0.2,0.4,27,0.00,,,0.00,WUHU216HW,2013-02-04 02:37:00,
2013-02-03 21:42:00,23.9,-5.5,29.71,NNE,23,0.7,1.1,27,0.00,,,0.00,WUHU216HW,2013-02-04 02:42:00,
2013-02-03 21:47:00,23.8,-5.7,29.71,North,0,0.4,1.1,27,0.00,,,0.00,WUHU216HW,2013-02-04 02:47:00,
2013-02-03 21:51:00,23.8,-5.7,29.71,NNE,23,0.2,2.5,27,0.00,,,0.00,WUHU216HW,2013-02-04 02:51:00,
2013-02-03 21:56:00,23.9,-5.5,29.70,North,0,0.0,2.5,27,0.00,,,0.00,WUHU216HW,2013-02-04 02:56:00,
2013-02-03 22:01:00,23.9,-6.3,29.70,NNE,23,0.4,2.5,26,0.00,,,0.00,WUHU216HW,2013-02-04 03:01:00,
2013-02-03 22:06:00,23.9,-6.3,29.70,North,0,0.4,0.9,26,0.00,,,0.00,WUHU216HW,2013-02-04 03:06:00,
2013-02-03 22:11:00,23.9,-5.5,29.69,North,0,0.0,0.9,27,0.00,,,0.00,WUHU216HW,2013-02-04 03:11:00,
2013-02-03 22:17:00,23.8,-5.7,29.69,NNW,338,0.2,1.1,27,0.00,,,0.00,WUHU216HW,2013-02-04 03:17:00,
2013-02-03 22:22:00,23.8,-4.8,29.69,NNW,338,0.0,1.1,28,0.00,,,0.00,WUHU216HW,2013-02-04 03:22:00,
2013-02-03 22:27:00,23.8,-4.8,29.69,NNW,338,0.0,0.9,28,0.00,,,0.00,WUHU216HW,2013-02-04 03:27:00,
2013-02-03 22:32:00,23.8,-4.8,29.69,NNE,23,1.1,1.1,28,0.00,,,0.00,WUHU216HW,2013-02-04 03:32:00,
2013-02-03 22:37:00,23.6,-5.7,29.69,North,0,0.0,1.1,27,0.00,,,0.00,WUHU216HW,2013-02-04 03:37:00,
2013-02-03 22:42:00,23.6,-5.7,29.69,NNW,338,0.0,0.7,27,0.00,,,0.00,WUHU216HW,2013-02-04 03:42:00,
2013-02-03 22:47:00,23.6,-5.7,29.69,North,0,0.2,2.2,27,0.00,,,0.00,WUHU216HW,2013-02-04 03:47:00,
2013-02-03 22:52:00,23.6,-6.7,29.69,North,0,1.8,2.2,26,0.00,,,0.00,WUHU216HW,2013-02-04 03:52:00,
2013-02-03 22:57:00,23.6,-5.7,29.68,NNW,338,0.7,1.8,27,0.00,,,0.00,WUHU216HW,2013-02-04 03:57:00,
2013-02-03 23:02:00,23.6,-6.7,29.68,NE,45,0.4,1.6,26,0.00,,,0.00,WUHU216HW,2013-02-04 04:02:00,
2013-02-03 23:07:00,23.6,-6.7,29.68,North,0,1.8,1.8,26,0.00,,,0.00,WUHU216HW,2013-02-04 04:07:00,
2013-02-03 23:12:00,23.6,-6.7,29.68,NNW,338,0.0,1.8,26,0.00,,,0.00,WUHU216HW,2013-02-04 04:12:00,
2013-02-03 23:17:00,23.6,-6.7,29.68,NNW,338,0.2,1.3,26,0.00,,,0.00,WUHU216HW,2013-02-04 04:17:00,
2013-02-03 23:22:00,23.6,-8.3,29.68,NNW,338,0.0,3.1,24,0.00,,,0.00,WUHU216HW,2013-02-04 04:22:00,
2013-02-03 23:27:00,23.4,-6.7,29.68,NNE,23,0.2,3.1,26,0.00,,,0.00,WUHU216HW,2013-02-04 04:27:00,
2013-02-03 23:32:00,23.4,-6.7,29.68,North,0,0.0,0.4,26,0.00,,,0.00,WUHU216HW,2013-02-04 04:32:00,
2013-02-03 23:37:00,23.0,-6.3,29.68,NNW,338,0.0,0.9,27,0.00,,,0.00,WUHU216HW,2013-02-04 04:37:00,
2013-02-03 23:42:00,23.0,-7.1,29.68,North,0,0.0,0.9,26,0.00,,,0.00,WUHU216HW,2013-02-04 04:42:00,
2013-02-03 23:47:00,22.9,-7.3,29.68,NNW,338,0.0,0.9,26,0.00,,,0.00,WUHU216HW,2013-02-04 04:47:00,
2013-02-03 23:52:00,22.9,-7.3,29.68,North,0,0.0,0.9,26,0.00,,,0.00,WUHU216HW,2013-02-04 04:52:00,
2013-02-03 23:57:00,22.7,-7.4,29.68,NNW,338,0.0,0.7,26,0.00,,,0.00,WUHU216HW,2013-02-04 04:57:00,